TITAN 3C TRANSTAGE DEB, 43516

Orbit data source: Space-Track

TITAN 3C TRANSTAGE DEB, 43516 is space debris in GEO originally from a launch on Sun, 09 Feb 1969 UTC launched from the Air Force Eastern Test Range (AFETR). Debris objects in space refer to the collection of defunct objects orbiting the Earth. Examples of debris include non-operational satellites, rocket bodies, and fragments generated from explosions, collisions, or faulty payload assembly.

Not visible in the next 10 days
Identifier
43516, 1969-013U
Orbit
GEO
Country
Flag of USUS
Related business
Manufacturer
Martin Marietta
Mission
Spacecraft
Bus & Motor
Unknown
Mass
Unknown
Launch date (UTC)
1969-02-09 (58 years ago)
Launch vehicle
Unknown
Launch site
Air Force Eastern Test Range (AFETR)
Object type
Payload
Rocket body
Debris
Shape & HBR
Unknown shape, 1.1 m
Radar Cross Section
Medium (>0.1 m² and <1 m²)

Expand to show TLE details & history
Last TLE update: 2 days ago

TLE from 2 days ago
0 TITAN 3C TRANSTAGE DEB
1 43516U 69013U   26254.03076117 -.00000102  00000-0  00000+0 0  9995
2 43516   1.7971  65.0736 0105676  28.9778 332.4766  0.96513023 29358
Epoch: 2026-09-11T00:44Z
TLE epoch observation values (Epoch: 2026-09-11T00:44:17.765Z)
Latitude
-0°
Longitude
64.82694°
Altitude
36,472.145 km
Speed
3.064 km/s
True Right ascension
04h 23m 50s
True Declination
0° 00' 00"
Sunlit
Object was in daylight at epoch
Visualization orbit readout
Latitude
Unknown
Longitude
Unknown
Altitude
Unknown
Speed
Unknown
Apparent Right ascension
Unknown
Apparent Declination
Unknown
Sunlit
N/A
Visualization observer readout
Local Sidereal Time
11:15:10
Azimuth
Unknown
Elevation
Unknown
Doppler factor
Unknown
Orbital elements
Apogee altitude
37,332.494 km
Perigee altitude
36,418.322 km
Semi-major axis
43,253.545 km
Eccentricity
0.01057
Inclination
1.7971°
RAAN
65.0736°
Arg. of periapsis
28.9778°
True anomaly
331.91038°
Mean anomaly
332.4766°
Eccentric anomaly
332.19416°
Mean motion
0.24127 °/min
Orbital period
1,492.08 mins
BSTAR
0
Loading maneuver chart data...
Computing Atmospheric mass density...

Documentation

Showing up to 5 results
|